Home   Weather   Racine   Past weeks

Flag for USA Past Weather in Racine, Wisconsin, USA — Yesterday and Last 2 Weeks

Now
33 °F

Fog.


Feels Like: 29 °F
Forecast: 33 / 41 °F
Wind: 5 mph from Southwest

Location: Batten International Airport

Current Time: Jan 19, 2017 at 4:42:17 am

Latest Report: Jan 19, 2017 at 3:53 am


Visibility: 2 mi

Pressure: 30.03 "Hg

Humidity: 96%

Dew Point: 32 °F

Location of RacineLocation

Past Weather in Racine — Graph

°F

Racine Temperature Yesterday

Maximum temperature yesterday: 36 °F (at 11:53 am)
Minimum temperature yesterday: 33 °F (at 4:53 pm)
Average temperature yesterday: 35 °F

High & Low Weather Summary for the Past Weeks

 TemperatureHumidityPressure
High49 °F (Jan 10, 1:53 pm)97% (Jan 16, 7:53 pm)30.86 "Hg (Jan 16, 7:53 pm)
Low-1 °F (Jan 6, 3:53 am)37% (Jan 8, 2:53 pm)29.15 "Hg (Jan 10, 2:19 pm)
Average23 °F72%30.18 "Hg
* Reported Jan 4 2:53 am — Jan 19 2:53 am, Racine, Weather by CustomWeather, © 2017

Note: Actual official high and low records may vary slightly from our data, if they occured in-between our weather recording intervals... More about our weather records

Advertising

Racine Weather History for the Previous 24 Hours

Scroll right to see more
 ConditionsComfort  
Time TempWeatherWind HumidityBarometerVisibility
2:53 am
Thu, Jan 19
33 °FFog.8 mph96%30.04 "Hg2 mi
1:53 am33 °FFog.8 mph92%30.04 "Hg2 mi
12:53 am33 °FFog.13 mph92%30.05 "Hg1 mi
12:23 am33 °FFog.9 mph92%30.02 "Hg1 mi
11:53 pm
Wed, Jan 18
33 °FFog.10 mph88%30.03 "Hg5 mi
10:53 pm33 °FLow clouds.10 mph85%30.05 "Hg7 mi
9:53 pm34 °FLow clouds.9 mph85%30.04 "Hg9 mi
8:53 pm34 °FLow clouds.10 mph85%30.06 "Hg8 mi
7:53 pm34 °FLow clouds.8 mph85%30.06 "Hg8 mi
6:53 pm34 °FLow clouds.13 mph85%30.06 "Hg8 mi
5:53 pm33 °FLow clouds.14 mph85%30.06 "Hg10 mi
4:53 pm33 °FPassing clouds.9 mph85%30.05 "Hg9 mi
3:53 pm35 °FLow clouds.16 mph82%30.05 "Hg7 mi
3:24 pm35 °FOvercast.10 mph82%30.05 "Hg9 mi
2:53 pm35 °FLow clouds.6 mph82%30.07 "Hg10 mi
1:53 pm35 °FLow clouds.14 mph85%30.05 "Hg10 mi
12:53 pm36 °FLow clouds.14 mph82%30.06 "Hg10 mi
11:53 am36 °FLow clouds.9 mph85%30.06 "Hg10 mi
11:07 am35 °FLow clouds.8 mph92%30.07 "Hg10 mi
10:53 am35 °FLow clouds.7 mph92%30.10 "Hg10 mi
10:02 am34 °FFog.10 mph92%30.10 "Hg4 mi
9:01 am34 °FFog.9 mph92%30.10 "Hg5 mi
8:53 am34 °FFog.9 mph92%30.12 "Hg6 mi
7:53 am35 °FLow clouds.13 mph88%30.13 "Hg8 mi
6:53 am35 °FFog.8 mph92%30.10 "Hg5 mi
6:16 am35 °FFog.8 mph92%30.08 "Hg5 mi
5:53 am35 °FFog.6 mph92%30.09 "Hg5 mi
4:53 am35 °FFog.5 mph92%30.09 "Hg5 mi
4:00 am35 °FFog.8 mph92%30.05 "Hg6 mi
Weather by CustomWeather, © 2017

See weather overviewHow to use our weather pages